Wind_Speed
19 17 15 12 8 6 3 3 6 9 12 13 14 14 15 17 17 17 15 15 14 13 11 10 9 8 7 6 5 4 4 3 3 2 2 2 1 1 1 1 0 0 1
18 15 15 11 6 4 2 3 5 8 11 12 14 15 14 15 16 16 15 14 15 14 12 11 10 9 8 7 6 5 5 3 2 2 1 1 1 0 1 0 1 1 1
16 13 13 9 5 3 2 2 5 8 9 11 13 14 13 12 14 14 14 14 14 14 13 12 11 11 9 8 7 6 5 4 3 2 2 2 1 2 2 2 2 2 2
13 12 9 6 3 1 1 2 5 7 8 10 12 13 11 12 14 14 14 14 13 13 14 13 12 11 11 10 9 8 7 6 5 4 4 4 3 3 3 3 4 4 4
11 10 8 4 2 2 2 3 5 6 8 10 12 12 12 12 13 14 14 14 14 14 15 15 13 13 12 11 10 10 9 8 7 6 6 6 6 5 5 6 6 6 6
9 8 7 4 2 2 2 2 4 6 8 9 10 10 11 12 13 14 14 14 14 14 15 15 14 14 13 12 11 11 10 10 9 9 8 8 8 8 8 8 8 9 9
8 8 7 5 3 1 2 2 3 5 7 9 9 9 10 10 13 14 14 14 14 14 15 15 15 15 14 13 13 13 12 12 11 11 11 12 12 12 12 12 12 11 12
8 7 6 5 3 1 2 2 3 4 6 8 10 10 10 11 12 14 15 15 15 16 16 15 15 15 15 15 14 15 14 14 14 14 14 14 14 14 14 14 14 14 14
7 7 6 5 4 3 3 2 3 4 5 7 9 11 12 12 13 15 15 15 15 16 16 16 16 16 17 17 17 17 16 16 16 16 16 16 16 16 16 16 17 17 17
7 6 6 4 4 4 4 4 4 5 6 7 9 11 12 13 14 15 16 16 16 16 17 17 17 17 18 18 18 18 18 18 18 18 18 19 19 20 19 19 20 20 20
7 7 7 6 5 5 5 5 6 6 6 7 9 10 12 14 15 16 16 16 17 17 17 17 17 18 18 19 19 19 20 20 20 20 21 22 22 22 23 22 22 23 23
7 8 8 7 6 6 6 6 6 7 7 8 9 11 12 13 14 16 16 16 17 17 18 18 19 20 20 20 20 21 21 22 23 23 23 24 24 24 24 25 25 25 26
7 8 8 7 7 7 6 6 7 7 8 8 9 11 12 12 14 16 17 18 18 18 19 20 21 22 22 21 22 22 23 24 24 24 25 25 26 26 26 27 27 27 28
9 9 8 7 7 6 6 7 8 8 8 9 9 10 11 13 14 15 16 18 19 20 21 21 21 22 23 22 22 23 23 24 25 26 26 27 27 28 28 28 28 28 28
11 10 8 8 7 7 8 8 8 9 9 9 10 10 11 13 14 15 16 17 19 20 22 22 22 23 23 24 24 24 25 25 25 26 27 28 28 28 28 28 29 30 31
14 12 10 10 10 10 10 9 9 9 9 10 11 11 12 13 14 15 16 17 18 19 21 22 22 23 24 24 25 26 26 26 27 27 28 28 29 28 28 29 31 32 33
16 15 14 13 12 11 11 11 11 11 11 11 12 12 12 12 13 14 16 17 18 19 20 22 23 24 24 25 25 24 25 27 28 28 28 29 30 30 31 32 34 34 35
18 18 18 17 16 15 14 14 14 13 13 13 13 13 13 13 14 14 14 15 18 20 20 21 23 24 23 23 24 25 26 27 28 29 29 30 31 32 33 34 35 35 37
20 21 21 20 19 18 17 17 16 16 15 14 14 14 14 14 14 15 15 16 17 18 19 19 22 23 24 25 26 27 28 29 30 30 31 31 33 34 35 36 38 39 40
22 21 21 20 20 20 19 19 19 18 18 16 16 16 16 16 15 16 17 18 18 18 19 20 21 23 24 24 26 27 28 29 30 31 32 33 34 35 37 38 39 41 42
23 22 21 22 22 22 21 20 21 20 19 19 19 19 18 18 18 18 18 19 19 19 20 21 21 22 24 25 26 27 28 29 30 32 33 35 36 38 39 40 42 43 45
24 24 23 24 24 23 22 22 22 21 22 21 21 21 21 20 20 20 21 21 20 20 21 22 23 24 24 25 27 29 30 32 32 34 36 37 38 40 41 42 44 46 48
26 25 24 24 24 23 23 23 23 23 23 23 23 22 22 22 22 22 21 21 22 23 23 24 25 26 26 28 28 30 32 33 34 36 37 38 40 42 43 45 47 49 51
26 25 25 25 25 24 24 23 23 24 24 24 23 23 22 22 23 23 23 24 25 25 25 26 26 27 28 30 31 33 33 34 37 39 39 40 42 44 46 48 50 51 53
26 25 25 24 24 24 24 24 24 24 23 23 23 22 22 22 23 24 25 26 26 26 27 27 28 29 30 32 33 35 36 38 39 40 41 42 44 46 47 49 50 51 52
25 25 25 25 25 25 24 24 23 23 23 24 23 23 23 24 25 26 27 27 27 27 27 28 29 30 31 33 34 35 36 38 39 41 42 44 45 47 48 49 51 51 52
Wind_Direction
329 329 328 327 314 302 275 217 206 203 197 199 199 201 202 205 206 207 208 211 211 212 215 214 212 211 207 206 205 191 181 171 156 141 131 132 132 128 110 79 58 259 236
325 326 329 329 325 305 266 215 200 200 198 199 199 198 199 203 204 206 208 208 210 211 212 212 212 211 211 212 206 197 191 187 182 172 158 168 175 195 218 288 305 279 276
322 324 329 331 324 291 243 203 195 197 197 198 198 197 197 202 206 208 207 208 211 214 212 209 210 213 213 212 209 202 204 206 206 205 214 229 250 253 262 279 284 280 277
316 325 332 334 327 281 236 209 198 188 192 195 198 194 198 207 208 209 208 207 211 213 210 209 211 214 213 213 211 211 215 221 227 231 239 249 257 265 276 281 283 285 281
312 321 330 330 319 254 235 200 190 191 193 196 200 200 203 206 208 209 210 211 211 210 210 212 215 217 218 218 218 222 226 231 237 242 247 255 261 268 278 280 279 280 282
311 316 323 322 308 262 201 182 189 194 196 194 196 202 205 207 209 211 211 212 213 212 213 215 218 220 222 225 228 229 232 237 242 248 253 259 264 267 273 278 279 277 279
306 313 309 311 309 255 170 169 186 197 200 202 201 202 208 211 212 212 212 213 216 217 217 218 220 223 225 229 234 237 240 244 247 252 258 262 267 269 272 276 277 279 279
310 316 310 294 286 248 213 198 197 207 210 211 211 213 217 215 214 214 216 218 220 222 223 222 224 227 229 233 237 242 247 249 251 254 258 262 266 269 271 272 272 275 277
312 317 317 290 270 260 243 242 230 229 227 225 223 223 221 221 222 220 222 224 225 227 228 227 229 233 235 237 242 247 250 251 253 256 259 263 265 267 269 271 271 272 273
307 304 302 283 266 259 253 255 253 247 247 239 231 230 229 229 227 227 227 228 230 232 231 232 235 238 240 242 247 250 251 252 255 258 261 265 267 268 268 270 271 271 272
299 298 291 283 287 272 261 264 267 262 259 253 240 238 236 232 230 231 229 230 232 232 234 236 238 242 244 248 251 253 253 255 258 260 263 266 268 269 269 269 271 273 274
306 305 296 289 282 273 256 263 271 265 264 263 254 247 244 238 237 235 232 233 234 236 237 240 243 246 248 253 254 257 259 259 261 263 266 267 269 270 270 270 270 271 273
297 299 298 293 290 281 265 267 272 270 265 264 258 251 247 242 240 239 238 239 240 241 242 244 247 248 252 256 257 260 261 262 264 265 266 268 270 272 272 272 272 273 274
295 294 292 290 289 289 282 279 274 273 271 265 257 253 249 245 244 244 244 244 243 243 244 247 251 252 256 258 259 262 263 266 267 267 268 269 270 271 272 273 272 273 274
288 293 292 286 279 278 276 278 278 272 271 268 260 260 255 251 250 248 250 250 249 248 247 250 254 256 258 260 263 265 265 266 268 269 270 271 273 273 273 275 274 274 276
280 282 285 288 279 275 273 275 277 274 271 269 266 263 260 256 251 247 250 251 249 250 251 253 257 261 263 263 265 266 266 266 269 271 273 274 274 274 274 275 276 277 278
277 276 278 281 280 276 276 275 275 275 273 271 271 268 264 260 257 256 258 256 254 253 255 255 258 261 262 264 266 269 269 270 270 271 273 274 273 274 274 274 275 277 279
274 274 277 274 271 273 275 275 273 274 273 274 273 268 264 263 261 261 261 263 262 260 259 260 261 263 262 265 269 269 270 270 271 272 275 276 276 276 276 276 277 278 280
271 273 273 269 269 271 271 270 269 270 270 273 273 270 269 268 266 265 264 266 269 268 268 270 268 268 270 272 272 271 271 272 273 273 276 277 278 277 277 278 279 281 281
269 271 269 266 266 267 268 267 270 269 267 269 271 270 272 274 270 268 267 268 270 270 267 270 270 270 272 273 273 274 274 274 274 275 276 277 279 280 281 282 282 282 283
266 268 266 266 268 267 266 271 268 269 266 265 268 270 271 271 270 270 270 272 273 272 271 271 270 272 272 273 274 275 276 276 275 276 277 279 280 281 282 283 283 285 286
264 264 263 266 268 266 264 268 266 266 265 265 268 269 269 270 269 269 271 273 274 277 277 274 273 273 273 274 275 275 276 277 278 280 281 281 282 284 284 284 285 286 287
261 261 262 264 266 265 263 264 264 263 264 264 265 268 269 266 266 269 271 273 274 277 277 277 276 275 275 275 276 277 279 279 280 282 283 285 285 286 287 287 287 288 288
258 260 262 265 265 264 265 265 262 262 261 263 264 267 268 266 265 268 270 272 274 276 277 279 279 278 277 276 278 279 280 282 283 284 286 286 287 288 288 289 289 290 291
257 258 261 263 263 263 264 264 262 261 263 263 263 266 267 269 269 269 269 271 274 275 277 278 279 280 280 280 280 282 283 284 286 288 289 290 291 292 292 292 293 293 294
256 257 260 261 261 262 262 261 261 261 263 262 261 264 265 268 270 272 273 273 274 276 277 279 280 282 284 284 285 287 287 289 290 291 292 293 293 294 294 295 295 295 295
Height
5844 5841 5837 5836 5834 5833 5834 5834 5835 5836 5838 5840 5842 5845 5848 5850 5853 5856 5858 5861 5864 5866 5868 5870 5872 5873 5875 5876 5877 5878 5879 5879 5880 5880 5881 5881 5882 5882 5882 5882 5882 5881 5881
5842 5839 5837 5834 5833 5833 5833 5833 5834 5836 5838 5839 5841 5843 5846 5849 5851 5854 5857 5859 5862 5865 5867 5869 5871 5873 5874 5875 5877 5878 5879 5879 5880 5881 5881 5882 5882 5882 5882 5882 5882 5882 5882
5841 5838 5835 5833 5833 5833 5832 5833 5834 5835 5837 5838 5840 5843 5846 5848 5850 5853 5855 5858 5860 5863 5865 5868 5870 5872 5873 5875 5876 5877 5878 5879 5880 5881 5881 5881 5882 5882 5882 5882 5882 5882 5882
5839 5837 5835 5833 5832 5833 5833 5833 5834 5835 5836 5838 5840 5842 5845 5847 5849 5851 5854 5856 5859 5861 5864 5866 5869 5871 5872 5874 5875 5876 5877 5878 5879 5880 5880 5881 5881 5881 5881 5882 5881 5881 5881
5838 5837 5835 5833 5833 5833 5833 5833 5834 5835 5836 5837 5839 5842 5844 5846 5848 5851 5853 5855 5857 5859 5862 5865 5867 5869 5871 5872 5874 5875 5876 5877 5878 5878 5879 5880 5880 5880 5881 5881 5881 5880 5880
5838 5837 5835 5834 5834 5833 5833 5834 5834 5835 5836 5837 5839 5840 5842 5844 5847 5849 5851 5854 5856 5858 5861 5863 5865 5868 5869 5871 5872 5874 5875 5876 5876 5877 5878 5878 5879 5879 5879 5879 5879 5879 5879
5837 5837 5836 5835 5834 5833 5833 5834 5834 5835 5836 5837 5838 5840 5842 5843 5846 5848 5850 5852 5854 5857 5859 5861 5863 5865 5867 5869 5870 5872 5873 5873 5874 5875 5876 5876 5876 5877 5877 5877 5876 5876 5876
5837 5836 5836 5835 5835 5834 5834 5834 5834 5835 5835 5836 5837 5839 5840 5842 5844 5846 5848 5850 5853 5855 5857 5859 5861 5863 5865 5866 5868 5869 5870 5871 5872 5872 5873 5873 5874 5874 5874 5874 5874 5873 5873
5837 5836 5835 5835 5834 5834 5834 5834 5834 5834 5834 5835 5836 5838 5839 5840 5842 5844 5846 5848 5850 5852 5854 5856 5858 5860 5862 5863 5865 5866 5867 5868 5869 5869 5870 5870 5870 5870 5870 5870 5870 5870 5870
5836 5836 5835 5834 5834 5833 5833 5833 5833 5833 5833 5834 5835 5836 5837 5838 5840 5842 5843 5845 5847 5849 5851 5853 5855 5856 5858 5860 5861 5862 5863 5864 5865 5865 5866 5866 5866 5866 5866 5866 5866 5866 5865
5836 5835 5835 5834 5833 5832 5832 5832 5832 5832 5832 5832 5833 5833 5834 5835 5837 5839 5840 5842 5844 5846 5848 5850 5851 5853 5854 5855 5856 5857 5858 5859 5860 5861 5861 5861 5862 5861 5861 5861 5861 5860 5860
5834 5834 5833 5832 5831 5830 5830 5830 5830 5830 5830 5830 5830 5831 5831 5832 5834 5836 5837 5839 5841 5843 5845 5846 5847 5849 5850 5851 5852 5853 5853 5854 5855 5855 5855 5856 5856 5856 5856 5855 5855 5854 5854
5833 5832 5831 5830 5830 5829 5829 5828 5828 5828 5828 5828 5828 5828 5829 5830 5831 5833 5834 5836 5837 5839 5841 5842 5843 5844 5845 5846 5847 5848 5848 5849 5849 5849 5849 5850 5850 5849 5849 5849 5848 5847 5847
5831 5830 5829 5828 5828 5827 5827 5826 5826 5826 5826 5826 5826 5826 5826 5827 5828 5829 5830 5832 5833 5835 5836 5837 5839 5840 5840 5841 5842 5842 5843 5843 5843 5843 5843 5843 5843 5842 5842 5841 5841 5840 5839
5828 5827 5827 5826 5825 5825 5825 5824 5824 5824 5824 5824 5824 5823 5824 5824 5825 5826 5826 5827 5828 5830 5831 5833 5834 5834 5835 5836 5836 5836 5837 5837 5837 5837 5837 5836 5836 5835 5834 5834 5833 5832 5831
5824 5824 5824 5823 5823 5822 5822 5822 5821 5821 5822 5822 5821 5821 5821 5821 5821 5822 5822 5823 5824 5825 5826 5828 5828 5829 5829 5830 5830 5830 5830 5831 5830 5830 5830 5829 5828 5827 5826 5826 5825 5824 5822
5820 5820 5820 5820 5820 5820 5819 5819 5819 5819 5819 5819 5818 5818 5818 5818 5818 5818 5818 5819 5820 5821 5821 5822 5823 5823 5823 5824 5824 5823 5824 5823 5823 5823 5822 5821 5820 5820 5818 5817 5816 5815 5813
5815 5815 5816 5816 5816 5816 5816 5816 5816 5816 5816 5815 5815 5814 5814 5814 5814 5814 5815 5815 5815 5816 5816 5817 5817 5817 5817 5817 5817 5817 5817 5816 5816 5815 5814 5814 5812 5811 5810 5809 5807 5805 5804
5810 5810 5810 5811 5811 5811 5811 5811 5812 5812 5812 5811 5811 5811 5811 5811 5811 5811 5811 5811 5811 5811 5811 5811 5811 5811 5810 5810 5810 5810 5810 5809 5808 5808 5807 5805 5804 5803 5801 5799 5797 5795 5793
5803 5804 5805 5805 5806 5806 5806 5806 5807 5807 5806 5806 5807 5807 5807 5807 5807 5807 5807 5807 5807 5807 5807 5807 5806 5806 5805 5805 5804 5803 5803 5802 5801 5800 5798 5797 5795 5793 5791 5789 5786 5784 5781
5797 5798 5799 5800 5800 5800 5801 5801 5801 5801 5801 5802 5802 5802 5802 5802 5802 5802 5802 5802 5802 5801 5801 5801 5800 5800 5799 5798 5797 5796 5795 5794 5792 5791 5789 5788 5785 5783 5781 5778 5776 5773 5770
5790 5791 5792 5793 5793 5794 5794 5794 5795 5795 5796 5796 5796 5796 5796 5796 5796 5796 5796 5795 5795 5795 5795 5794 5794 5793 5792 5791 5790 5789 5787 5786 5784 5782 5780 5778 5776 5773 5770 5767 5764 5761 5757
5782 5784 5785 5786 5787 5787 5787 5788 5788 5788 5789 5789 5789 5789 5789 5789 5789 5790 5790 5789 5789 5789 5788 5787 5786 5785 5784 5783 5782 5780 5778 5776 5775 5773 5770 5768 5765 5762 5759 5756 5752 5748 5744
5774 5776 5778 5779 5779 5780 5780 5780 5781 5781 5782 5782 5783 5783 5782 5782 5783 5783 5783 5783 5783 5782 5781 5780 5779 5778 5776 5775 5773 5771 5769 5767 5765 5762 5760 5757 5754 5751 5747 5743 5738 5734 5729
5767 5768 5770 5771 5771 5772 5773 5773 5774 5774 5775 5775 5776 5776 5776 5776 5776 5776 5776 5775 5775 5774 5773 5772 5771 5769 5768 5766 5764 5762 5760 5757 5755 5752 5748 5745 5742 5738 5734 5729 5725 5720 5715
5759 5761 5762 5763 5764 5765 5766 5766 5766 5767 5768 5768 5769 5769 5770 5769 5769 5769 5768 5767 5767 5766 5765 5764 5763 5761 5759 5757 5755 5753 5750 5747 5744 5741 5737 5733 5729 5725 5720 5716 5711 5706 5700